ADCP : Acoustic Doppler Current Profiler as at 21/11/1997 10:05    
Cruise,GCODE,Date and Time,OID,BODC#,Latitude,Longitude,
CD85,ADCP,13/04/1994 23:52,adp8502.001,242014,49.303,-12.130,     
CD85,ADCP,14/04/1994 00:02,adp8502.002,242016,49.297,-12.163,     
CD85,ADCP,14/04/1994 00:12,adp8502.003,242018,49.291,-12.198,     
CD85,ADCP,14/04/1994 00:22,adp8502.004,242020,49.284,-12.233,     
CD85,ADCP,14/04/1994 00:32,adp8502.005,242022,49.277,-12.268,     
CD85,ADCP,14/04/1994 00:42,adp8502.006,242024,49.271,-12.303,     
CD85,ADCP,14/04/1994 00:52,adp8502.007,242026,49.266,-12.338,     
CD85,ADCP,14/04/1994 01:02,adp8502.008,242028,49.260,-12.373,     
CD85,ADCP,14/04/1994 01:12,adp8502.009,242030,49.253,-12.407,     
CD85,ADCP,14/04/1994 01:22,adp8502.010,242032,49.246,-12.442,     
CD85,ADCP,14/04/1994 01:32,adp8502.011,242034,49.239,-12.477,     
CD85,ADCP,14/04/1994 01:42,adp8502.012,242036,49.232,-12.513,     
CD85,ADCP,14/04/1994 01:52,adp8502.013,242038,49.226,-12.549,     
CD85,ADCP,14/04/1994 02:02,adp8502.014,242040,49.220,-12.585,     
CD85,ADCP,14/04/1994 02:12,adp8502.015,242042,49.214,-12.620,     
CD85,ADCP,14/04/1994 02:22,adp8502.016,242044,49.207,-12.656,     
CD85,ADCP,14/04/1994 02:32,adp8502.017,242046,49.199,-12.689,     
CD85,ADCP,14/04/1994 02:42,adp8502.018,242048,49.181,-12.705,     
CD85,ADCP,14/04/1994 02:52,adp8502.019,242050,49.159,-12.699,     
CD85,ADCP,14/04/1994 03:02,adp8502.020,242052,49.137,-12.689,     
CD85,ADCP,14/04/1994 03:12,adp8502.021,242054,49.115,-12.678,     
CD85,ADCP,14/04/1994 03:22,adp8502.022,242056,49.093,-12.666,     
CD85,ADCP,14/04/1994 03:32,adp8502.023,242058,49.076,-12.646,     
CD85,ADCP,14/04/1994 03:42,adp8502.024,242060,49.073,-12.612,     
CD85,ADCP,14/04/1994 03:52,adp8502.025,242062,49.079,-12.576,     
CD85,ADCP,14/04/1994 04:01,adp8502.026,242064,49.085,-12.539,     
CD85,ADCP,14/04/1994 04:12,adp8502.027,242066,49.091,-12.501,     
CD85,ADCP,14/04/1994 04:22,adp8502.028,242068,49.098,-12.462,     
CD85,ADCP,14/04/1994 04:32,adp8502.029,242070,49.104,-12.425,     
CD85,ADCP,14/04/1994 04:42,adp8502.030,242072,49.110,-12.388,     
CD85,ADCP,14/04/1994 04:52,adp8502.031,242074,49.116,-12.352,     
CD85,ADCP,14/04/1994 05:02,adp8502.032,242076,49.122,-12.316,     
CD85,ADCP,14/04/1994 05:12,adp8502.033,242078,49.128,-12.279,     
CD85,ADCP,14/04/1994 05:22,adp8502.034,242080,49.135,-12.242,     
CD85,ADCP,14/04/1994 05:32,adp8502.035,242082,49.142,-12.206,     
CD85,ADCP,14/04/1994 05:42,adp8502.036,241944,49.148,-12.172,     
CD85,ADCP,14/04/1994 05:52,adp8502.037,241946,49.154,-12.137,     
CD85,ADCP,14/04/1994 06:01,adp8502.038,241948,49.159,-12.103,     
CD85,ADCP,14/04/1994 06:12,adp8502.039,241950,49.165,-12.070,     
CD85,ADCP,14/04/1994 06:22,adp8502.040,241952,49.171,-12.036,     
CD85,ADCP,14/04/1994 06:32,adp8502.041,241954,49.177,-12.002,     
CD85,ADCP,14/04/1994 06:42,adp8502.042,241956,49.183,-11.967,     
CD85,ADCP,14/04/1994 06:52,adp8502.043,241958,49.189,-11.932,     
CD85,ADCP,14/04/1994 07:02,adp8502.044,241960,49.195,-11.897,     
CD85,ADCP,14/04/1994 07:12,adp8502.045,241962,49.202,-11.862,     
CD85,ADCP,14/04/1994 07:21,adp8502.046,241964,49.208,-11.826,     
CD85,ADCP,14/04/1994 07:31,adp8502.047,241966,49.214,-11.790,     
CD85,ADCP,14/04/1994 07:42,adp8502.048,241968,49.220,-11.753,     
CD85,ADCP,14/04/1994 07:52,adp8502.049,241970,49.225,-11.716,     
CD85,ADCP,14/04/1994 08:02,adp8502.050,241972,49.231,-11.678,     
CD85,ADCP,14/04/1994 08:12,adp8502.051,241974,49.237,-11.641,     
CD85,ADCP,14/04/1994 08:22,adp8502.052,241976,49.243,-11.605,     
CD85,ADCP,14/04/1994 08:32,adp8502.053,241978,49.249,-11.570,     
CD85,ADCP,14/04/1994 08:42,adp8502.054,241980,49.255,-11.534,     
CD85,ADCP,14/04/1994 08:52,adp8502.055,241982,49.260,-11.500,     
CD85,ADCP,14/04/1994 09:02,adp8502.056,241984,49.266,-11.465,     
CD85,ADCP,14/04/1994 09:12,adp8502.057,241986,49.273,-11.430,     
CD85,ADCP,14/04/1994 09:22,adp8502.058,241988,49.280,-11.395,     
CD85,ADCP,14/04/1994 09:32,adp8502.059,241990,49.286,-11.364,     
CD85,ADCP,14/04/1994 09:42,adp8502.060,241992,49.291,-11.338,     
CD85,ADCP,14/04/1994 09:52,adp8502.061,241994,49.297,-11.305,     
CD85,ADCP,14/04/1994 10:02,adp8502.062,241996,49.303,-11.268,     
CD85,ADCP,14/04/1994 10:12,adp8502.063,241998,49.309,-11.231,     
CD85,ADCP,14/04/1994 10:22,adp8502.064,242000,49.315,-11.195,     
CD85,ADCP,14/04/1994 10:32,adp8502.065,242002,49.322,-11.160,     
CD85,ADCP,14/04/1994 10:42,adp8502.066,242004,49.328,-11.123,     
CD85,ADCP,14/04/1994 10:52,adp8502.067,242006,49.335,-11.087,     
CD85,ADCP,14/04/1994 11:02,adp8502.068,242008,49.341,-11.052,     
CD85,ADCP,14/04/1994 11:12,adp8502.069,242010,49.351,-11.020,     
CD85,ADCP,14/04/1994 11:22,adp8502.070,242012,49.370,-11.004,     
CD85,ADCP,14/04/1994 11:32,adp8502.071,243554,49.394,-11.001,     
CD85,ADCP,14/04/1994 11:42,adp8502.072,243556,49.417,-11.000,     
CD85,ADCP,14/04/1994 11:52,adp8502.073,243558,49.440,-11.000,     
CD85,ADCP,14/04/1994 12:02,adp8502.074,243560,49.463,-11.000,     
CD85,ADCP,14/04/1994 12:12,adp8502.075,243562,49.483,-11.010,     
CD85,ADCP,14/04/1994 12:22,adp8502.076,243564,49.487,-11.040,     
CD85,ADCP,14/04/1994 12:32,adp8502.077,243566,49.481,-11.077,     
CD85,ADCP,14/04/1994 12:41,adp8502.078,243568,49.475,-11.114,     
CD85,ADCP,14/04/1994 12:52,adp8502.079,243570,49.469,-11.152,     
CD85,ADCP,14/04/1994 13:02,adp8502.080,243572,49.463,-11.189,     
CD85,ADCP,14/04/1994 13:12,adp8502.081,243574,49.456,-11.226,     
CD85,ADCP,14/04/1994 13:22,adp8502.082,243576,49.449,-11.261,     
CD85,ADCP,14/04/1994 13:32,adp8502.083,243578,49.443,-11.297,     
CD85,ADCP,14/04/1994 13:42,adp8502.084,243580,49.436,-11.331,     
CD85,ADCP,14/04/1994 13:52,adp8502.085,243582,49.430,-11.367,     
CD85,ADCP,14/04/1994 14:02,adp8502.086,243584,49.424,-11.403,     
CD85,ADCP,14/04/1994 14:11,adp8502.087,243586,49.420,-11.439,     
CD85,ADCP,14/04/1994 14:22,adp8502.088,243588,49.415,-11.469,     
CD85,ADCP,14/04/1994 14:32,adp8502.089,243590,49.407,-11.496,     
CD85,ADCP,14/04/1994 14:42,adp8502.090,243592,49.399,-11.529,     
CD85,ADCP,14/04/1994 14:52,adp8502.091,243594,49.395,-11.565,     
CD85,ADCP,14/04/1994 15:02,adp8502.092,243596,49.390,-11.601,     
CD85,ADCP,14/04/1994 15:12,adp8502.093,243598,49.384,-11.637,     
CD85,ADCP,14/04/1994 15:22,adp8502.094,243600,49.378,-11.673,     
CD85,ADCP,14/04/1994 15:32,adp8502.095,243602,49.372,-11.711,     
CD85,ADCP,14/04/1994 15:41,adp8502.096,243604,49.365,-11.748,     
CD85,ADCP,14/04/1994 15:52,adp8502.097,243606,49.359,-11.777,     
CD85,ADCP,14/04/1994 16:02,adp8502.098,243608,49.354,-11.794,     
CD85,ADCP,14/04/1994 16:12,adp8502.099,243610,49.350,-11.808,     
CD85,ADCP,14/04/1994 16:22,adp8502.100,243612,49.346,-11.822,     
CD85,ADCP,14/04/1994 16:32,adp8502.101,243614,49.343,-11.836,     
CD85,ADCP,14/04/1994 16:42,adp8502.102,243616,49.343,-11.848,     
CD85,ADCP,14/04/1994 16:52,adp8502.103,243618,49.342,-11.859,     
CD85,ADCP,14/04/1994 17:02,adp8502.104,243620,49.342,-11.868,     
CD85,ADCP,14/04/1994 17:12,adp8502.105,243622,49.341,-11.876,     
CD85,ADCP,14/04/1994 17:22,adp8502.106,242154,49.340,-11.883,     
CD85,ADCP,14/04/1994 17:32,adp8502.107,242156,49.343,-11.870,     
CD85,ADCP,14/04/1994 17:42,adp8502.108,242158,49.348,-11.850,     
CD85,ADCP,14/04/1994 17:52,adp8502.109,242160,49.349,-11.857,     
CD85,ADCP,14/04/1994 18:02,adp8502.110,242162,49.346,-11.876,     
CD85,ADCP,14/04/1994 18:12,adp8502.111,242164,49.346,-11.879,     
CD85,ADCP,14/04/1994 18:22,adp8502.112,242166,49.342,-11.885,     
CD85,ADCP,14/04/1994 18:32,adp8502.113,242168,49.337,-11.909,     
CD85,ADCP,14/04/1994 18:42,adp8502.114,242170,49.331,-11.941,     
CD85,ADCP,14/04/1994 18:52,adp8502.115,242172,49.324,-11.976,     
CD85,ADCP,14/04/1994 19:02,adp8502.116,242174,49.318,-12.010,     
CD85,ADCP,14/04/1994 19:12,adp8502.117,242176,49.313,-12.044,     
CD85,ADCP,14/04/1994 19:22,adp8502.118,242178,49.308,-12.080,     
CD85,ADCP,14/04/1994 19:32,adp8502.119,242180,49.302,-12.116,     
CD85,ADCP,14/04/1994 19:42,adp8502.120,242182,49.296,-12.153,     
CD85,ADCP,14/04/1994 19:52,adp8502.121,242184,49.290,-12.189,     
CD85,ADCP,14/04/1994 20:02,adp8502.122,242186,49.284,-12.225,     
CD85,ADCP,14/04/1994 20:12,adp8502.123,242188,49.278,-12.261,     
CD85,ADCP,14/04/1994 20:22,adp8502.124,242190,49.271,-12.297,     
CD85,ADCP,14/04/1994 20:32,adp8502.125,242192,49.275,-12.329,     
CD85,ADCP,14/04/1994 20:42,adp8502.126,242194,49.294,-12.339,     
CD85,ADCP,14/04/1994 20:52,adp8502.127,242196,49.318,-12.336,     
CD85,ADCP,14/04/1994 21:02,adp8502.128,242198,49.342,-12.332,     
CD85,ADCP,14/04/1994 21:12,adp8502.129,242200,49.363,-12.317,     
CD85,ADCP,14/04/1994 21:22,adp8502.130,242202,49.376,-12.287,     
CD85,ADCP,14/04/1994 21:32,adp8502.131,242204,49.369,-12.255,     
CD85,ADCP,14/04/1994 21:42,adp8502.132,242206,49.350,-12.227,     
CD85,ADCP,14/04/1994 21:52,adp8502.133,242208,49.332,-12.203,     
CD85,ADCP,14/04/1994 22:02,adp8502.134,242210,49.322,-12.191,     
CD85,ADCP,14/04/1994 22:12,adp8502.135,242212,49.313,-12.185,     
CD85,ADCP,14/04/1994 22:22,adp8502.136,242214,49.300,-12.182,     
CD85,ADCP,14/04/1994 22:32,adp8502.137,242216,49.286,-12.193,     
CD85,ADCP,14/04/1994 22:42,adp8502.138,242218,49.277,-12.220,     
CD85,ADCP,14/04/1994 22:52,adp8502.139,242220,49.270,-12.250,     
CD85,ADCP,14/04/1994 23:02,adp8502.140,242222,49.268,-12.280,     
CD85,ADCP,14/04/1994 23:12,adp8502.141,241874,49.269,-12.289,     
CD85,ADCP,14/04/1994 23:22,adp8502.142,241876,49.270,-12.266,     
CD85,ADCP,14/04/1994 23:32,adp8502.143,241878,49.271,-12.246,     
CD85,ADCP,14/04/1994 23:42,adp8502.144,241880,49.273,-12.241,     
CD85,ADCP,14/04/1994 23:52,adp8502.145,241882,49.273,-12.239,     
CD85,ADCP,14/04/1994 23:52,adp8503.001,241884,49.273,-12.239,     
CD85,ADCP,15/04/1994 00:02,adp8503.002,241886,49.273,-12.237,     
CD85,ADCP,15/04/1994 00:12,adp8503.003,241888,49.273,-12.235,     
CD85,ADCP,15/04/1994 00:22,adp8503.004,241890,49.273,-12.234,     
CD85,ADCP,15/04/1994 00:32,adp8503.005,241892,49.273,-12.232,     
CD85,ADCP,15/04/1994 00:42,adp8503.006,241894,49.273,-12.231,     
CD85,ADCP,15/04/1994 00:52,adp8503.007,241896,49.272,-12.230,     
CD85,ADCP,15/04/1994 01:02,adp8503.008,241898,49.271,-12.229,     
CD85,ADCP,15/04/1994 01:12,adp8503.009,241900,49.270,-12.229,     
CD85,ADCP,15/04/1994 01:22,adp8503.010,241902,49.268,-12.228,     
CD85,ADCP,15/04/1994 01:32,adp8503.011,241904,49.269,-12.227,     
CD85,ADCP,15/04/1994 01:42,adp8503.012,241906,49.272,-12.231,     
CD85,ADCP,15/04/1994 01:52,adp8503.013,241908,49.274,-12.241,     
CD85,ADCP,15/04/1994 02:02,adp8503.014,241910,49.275,-12.251,     
CD85,ADCP,15/04/1994 02:12,adp8503.015,241912,49.277,-12.256,     
CD85,ADCP,15/04/1994 02:22,adp8503.016,241914,49.281,-12.254,     
CD85,ADCP,15/04/1994 02:32,adp8503.017,241916,49.284,-12.253,     
CD85,ADCP,15/04/1994 02:42,adp8503.018,241918,49.286,-12.252,     
CD85,ADCP,15/04/1994 02:52,adp8503.019,241920,49.288,-12.252,     
CD85,ADCP,15/04/1994 03:02,adp8503.020,241922,49.290,-12.251,     
CD85,ADCP,15/04/1994 03:12,adp8503.021,241924,49.291,-12.249,     
CD85,ADCP,15/04/1994 03:22,adp8503.022,241926,49.293,-12.247,     
CD85,ADCP,15/04/1994 03:32,adp8503.023,241928,49.293,-12.251,     
CD85,ADCP,15/04/1994 03:42,adp8503.024,241930,49.292,-12.256,     
CD85,ADCP,15/04/1994 03:52,adp8503.025,241932,49.290,-12.259,     
CD85,ADCP,15/04/1994 04:01,adp8503.026,241934,49.288,-12.261,     
CD85,ADCP,15/04/1994 04:12,adp8503.027,241936,49.286,-12.265,     
CD85,ADCP,15/04/1994 04:22,adp8503.028,241938,49.284,-12.268,     
CD85,ADCP,15/04/1994 04:32,adp8503.029,241940,49.286,-12.275,     
CD85,ADCP,15/04/1994 04:42,adp8503.030,241942,49.288,-12.285,     
CD85,ADCP,15/04/1994 04:52,adp8503.031,241804,49.288,-12.289,     
CD85,ADCP,15/04/1994 05:02,adp8503.032,241806,49.286,-12.291,     
CD85,ADCP,15/04/1994 05:12,adp8503.033,241808,49.288,-12.294,     
CD85,ADCP,15/04/1994 05:22,adp8503.034,241810,49.290,-12.295,     
CD85,ADCP,15/04/1994 05:32,adp8503.035,241812,49.280,-12.303,     
CD85,ADCP,15/04/1994 05:42,adp8503.036,241814,49.270,-12.339,     
CD85,ADCP,15/04/1994 05:52,adp8503.037,241816,49.263,-12.387,     
CD85,ADCP,15/04/1994 06:01,adp8503.038,241818,49.255,-12.437,     
CD85,ADCP,15/04/1994 06:12,adp8503.039,241820,49.246,-12.484,     
CD85,ADCP,15/04/1994 06:22,adp8503.040,241822,49.236,-12.531,     
CD85,ADCP,15/04/1994 06:32,adp8503.041,241824,49.227,-12.579,     
CD85,ADCP,15/04/1994 06:42,adp8503.042,241826,49.218,-12.627,     
CD85,ADCP,15/04/1994 06:52,adp8503.043,241828,49.204,-12.672,     
CD85,ADCP,15/04/1994 07:02,adp8503.044,241830,49.189,-12.715,     
CD85,ADCP,15/04/1994 07:12,adp8503.045,241832,49.173,-12.759,     
CD85,ADCP,15/04/1994 07:21,adp8503.046,241834,49.161,-12.801,     
CD85,ADCP,15/04/1994 07:31,adp8503.047,241836,49.163,-12.828,     
CD85,ADCP,15/04/1994 07:42,adp8503.048,241838,49.174,-12.831,     
CD85,ADCP,15/04/1994 07:52,adp8503.049,241840,49.184,-12.822,     
CD85,ADCP,15/04/1994 08:02,adp8503.050,241842,49.186,-12.820,     
CD85,ADCP,15/04/1994 08:12,adp8503.051,241844,49.189,-12.819,     
CD85,ADCP,15/04/1994 08:22,adp8503.052,241846,49.192,-12.814,     
CD85,ADCP,15/04/1994 08:32,adp8503.053,241848,49.194,-12.803,     
CD85,ADCP,15/04/1994 08:42,adp8503.054,241850,49.191,-12.803,     
CD85,ADCP,15/04/1994 08:52,adp8503.055,241852,49.186,-12.807,     
CD85,ADCP,15/04/1994 09:02,adp8503.056,241854,49.187,-12.804,     
CD85,ADCP,15/04/1994 09:12,adp8503.057,241856,49.189,-12.805,     
CD85,ADCP,15/04/1994 09:22,adp8503.058,241858,49.190,-12.805,     
CD85,ADCP,15/04/1994 09:32,adp8503.059,241860,49.191,-12.805,     
CD85,ADCP,15/04/1994 09:42,adp8503.060,241862,49.193,-12.806,     
CD85,ADCP,15/04/1994 09:52,adp8503.061,241864,49.195,-12.805,     
CD85,ADCP,15/04/1994 10:02,adp8503.062,241866,49.195,-12.807,     
CD85,ADCP,15/04/1994 10:12,adp8503.063,241868,49.197,-12.810,     
CD85,ADCP,15/04/1994 10:22,adp8503.064,241870,49.199,-12.811,     
CD85,ADCP,15/04/1994 10:32,adp8503.065,241872,49.200,-12.812,     
CD85,ADCP,15/04/1994 10:42,adp8503.066,241734,49.202,-12.812,     
CD85,ADCP,15/04/1994 10:52,adp8503.067,241736,49.206,-12.811,     
CD85,ADCP,15/04/1994 11:02,adp8503.068,241738,49.202,-12.810,     
CD85,ADCP,15/04/1994 11:12,adp8503.069,241740,49.186,-12.810,     
CD85,ADCP,15/04/1994 11:22,adp8503.070,241742,49.170,-12.813,     
CD85,ADCP,15/04/1994 11:32,adp8503.071,241744,49.154,-12.814,     
CD85,ADCP,15/04/1994 11:42,adp8503.072,241746,49.139,-12.817,     
CD85,ADCP,15/04/1994 11:52,adp8503.073,241748,49.124,-12.818,     
CD85,ADCP,15/04/1994 12:02,adp8503.074,241750,49.110,-12.818,     
CD85,ADCP,15/04/1994 12:12,adp8503.075,241752,49.106,-12.815,     
CD85,ADCP,15/04/1994 12:22,adp8503.076,241754,49.108,-12.813,     
CD85,ADCP,15/04/1994 12:32,adp8503.077,241756,49.111,-12.811,     
CD85,ADCP,15/04/1994 12:41,adp8503.078,241758,49.114,-12.808,     
CD85,ADCP,15/04/1994 12:52,adp8503.079,241760,49.118,-12.805,     
CD85,ADCP,15/04/1994 13:02,adp8503.080,241762,49.124,-12.802,     
CD85,ADCP,15/04/1994 13:12,adp8503.081,241764,49.130,-12.798,     
CD85,ADCP,15/04/1994 13:22,adp8503.082,241766,49.137,-12.795,     
CD85,ADCP,15/04/1994 13:32,adp8503.083,241768,49.143,-12.791,     
CD85,ADCP,15/04/1994 13:42,adp8503.084,241770,49.150,-12.790,     
CD85,ADCP,15/04/1994 13:52,adp8503.085,241772,49.157,-12.789,     
CD85,ADCP,15/04/1994 14:02,adp8503.086,241774,49.164,-12.791,     
CD85,ADCP,15/04/1994 14:11,adp8503.087,241776,49.171,-12.793,     
CD85,ADCP,15/04/1994 14:22,adp8503.088,241778,49.178,-12.796,     
CD85,ADCP,15/04/1994 14:32,adp8503.089,241780,49.185,-12.799,     
CD85,ADCP,15/04/1994 14:42,adp8503.090,241782,49.190,-12.801,     
CD85,ADCP,15/04/1994 14:52,adp8503.091,241784,49.198,-12.802,     
CD85,ADCP,15/04/1994 15:02,adp8503.092,241786,49.205,-12.802,     
CD85,ADCP,15/04/1994 15:12,adp8503.093,241788,49.212,-12.804,     
CD85,ADCP,15/04/1994 15:22,adp8503.094,241790,49.218,-12.808,     
CD85,ADCP,15/04/1994 15:32,adp8503.095,241792,49.226,-12.812,     
CD85,ADCP,15/04/1994 15:41,adp8503.096,241794,49.233,-12.817,     
CD85,ADCP,15/04/1994 15:52,adp8503.097,241796,49.240,-12.822,     
CD85,ADCP,15/04/1994 16:02,adp8503.098,241798,49.248,-12.826,     
CD85,ADCP,15/04/1994 16:12,adp8503.099,241800,49.255,-12.830,     
CD85,ADCP,15/04/1994 16:22,adp8503.100,241802,49.262,-12.835,     
CD85,ADCP,15/04/1994 16:32,adp8503.101,241664,49.269,-12.839,     
CD85,ADCP,15/04/1994 16:42,adp8503.102,241666,49.277,-12.843,     
CD85,ADCP,15/04/1994 16:52,adp8503.103,241668,49.283,-12.848,     
CD85,ADCP,15/04/1994 17:02,adp8503.104,241670,49.290,-12.852,     
CD85,ADCP,15/04/1994 17:12,adp8503.105,241672,49.297,-12.856,     
CD85,ADCP,15/04/1994 17:22,adp8503.106,241674,49.303,-12.860,     
CD85,ADCP,15/04/1994 17:32,adp8503.107,241676,49.309,-12.864,     
CD85,ADCP,15/04/1994 17:42,adp8503.108,241678,49.313,-12.868,     
CD85,ADCP,15/04/1994 17:52,adp8503.109,241680,49.317,-12.872,     
CD85,ADCP,15/04/1994 18:02,adp8503.110,241682,49.322,-12.875,     
CD85,ADCP,15/04/1994 18:12,adp8503.111,241684,49.320,-12.875,     
CD85,ADCP,15/04/1994 18:22,adp8503.112,241686,49.297,-12.873,     
CD85,ADCP,15/04/1994 18:32,adp8503.113,241688,49.265,-12.870,     
CD85,ADCP,15/04/1994 18:42,adp8503.114,241690,49.232,-12.866,     
CD85,ADCP,15/04/1994 18:52,adp8503.115,241692,49.200,-12.860,     
CD85,ADCP,15/04/1994 19:02,adp8503.116,241694,49.168,-12.849,     
CD85,ADCP,15/04/1994 19:12,adp8503.117,241696,49.139,-12.831,     
CD85,ADCP,15/04/1994 19:22,adp8503.118,241698,49.116,-12.804,     
CD85,ADCP,15/04/1994 19:32,adp8503.119,241700,49.112,-12.781,     
CD85,ADCP,15/04/1994 19:42,adp8503.120,241702,49.113,-12.776,     
CD85,ADCP,15/04/1994 19:52,adp8503.121,241704,49.114,-12.777,     
CD85,ADCP,15/04/1994 20:02,adp8503.122,241706,49.114,-12.777,     
CD85,ADCP,15/04/1994 20:12,adp8503.123,241708,49.113,-12.775,     
CD85,ADCP,15/04/1994 20:22,adp8503.124,241710,49.114,-12.774,     
CD85,ADCP,15/04/1994 20:32,adp8503.125,241712,49.114,-12.773,     
CD85,ADCP,15/04/1994 20:42,adp8503.126,241714,49.117,-12.770,     
CD85,ADCP,15/04/1994 20:52,adp8503.127,241716,49.123,-12.768,     
CD85,ADCP,15/04/1994 21:02,adp8503.128,241718,49.131,-12.771,     
CD85,ADCP,15/04/1994 21:12,adp8503.129,241720,49.139,-12.774,     
CD85,ADCP,15/04/1994 21:22,adp8503.130,241722,49.149,-12.777,     
CD85,ADCP,15/04/1994 21:32,adp8503.131,241724,49.158,-12.779,     
CD85,ADCP,15/04/1994 21:42,adp8503.132,241726,49.167,-12.782,     
CD85,ADCP,15/04/1994 21:52,adp8503.133,241728,49.175,-12.785,     
CD85,ADCP,15/04/1994 22:02,adp8503.134,241730,49.183,-12.788,     
CD85,ADCP,15/04/1994 22:12,adp8503.135,241732,49.190,-12.791,     
CD85,ADCP,15/04/1994 22:22,adp8503.136,241594,49.197,-12.794,     
CD85,ADCP,15/04/1994 22:32,adp8503.137,241596,49.204,-12.798,     
CD85,ADCP,15/04/1994 22:42,adp8503.138,241598,49.211,-12.800,     
CD85,ADCP,15/04/1994 22:52,adp8503.139,241600,49.217,-12.803,     
CD85,ADCP,15/04/1994 23:02,adp8503.140,241602,49.224,-12.804,     
CD85,ADCP,15/04/1994 23:12,adp8503.141,241604,49.230,-12.806,     
CD85,ADCP,15/04/1994 23:22,adp8503.142,241606,49.234,-12.807,     
CD85,ADCP,15/04/1994 23:32,adp8503.143,241608,49.237,-12.809,     
CD85,ADCP,15/04/1994 23:42,adp8503.144,241610,49.241,-12.811,     
CD85,ADCP,15/04/1994 23:52,adp8503.145,241612,49.247,-12.813,     
CD85,ADCP,16/04/1994 00:02,adp8504.001,241614,49.255,-12.814,     
CD85,ADCP,16/04/1994 00:12,adp8504.002,241616,49.262,-12.816,     
CD85,ADCP,16/04/1994 00:22,adp8504.003,241618,49.270,-12.818,     
CD85,ADCP,16/04/1994 00:32,adp8504.004,241620,49.278,-12.819,     
CD85,ADCP,16/04/1994 00:42,adp8504.005,241622,49.286,-12.821,     
CD85,ADCP,16/04/1994 00:52,adp8504.006,241624,49.294,-12.823,     
CD85,ADCP,16/04/1994 01:02,adp8504.007,241626,49.302,-12.824,     
CD85,ADCP,16/04/1994 01:12,adp8504.008,241628,49.311,-12.826,     
CD85,ADCP,16/04/1994 01:22,adp8504.009,241630,49.320,-12.828,     
CD85,ADCP,16/04/1994 01:32,adp8504.010,241632,49.328,-12.830,     
CD85,ADCP,16/04/1994 01:42,adp8504.011,241634,49.337,-12.831,     
CD85,ADCP,16/04/1994 01:52,adp8504.012,241636,49.346,-12.832,     
CD85,ADCP,16/04/1994 02:02,adp8504.013,241638,49.355,-12.833,     
CD85,ADCP,16/04/1994 02:12,adp8504.014,241640,49.363,-12.835,     
CD85,ADCP,16/04/1994 02:22,adp8504.015,241642,49.370,-12.836,     
CD85,ADCP,16/04/1994 02:32,adp8504.016,241644,49.378,-12.837,     
CD85,ADCP,16/04/1994 02:42,adp8504.017,241646,49.384,-12.839,     
CD85,ADCP,16/04/1994 02:52,adp8504.018,241648,49.391,-12.840,     
CD85,ADCP,16/04/1994 03:02,adp8504.019,241650,49.397,-12.840,     
CD85,ADCP,16/04/1994 03:12,adp8504.020,241652,49.399,-12.837,     
CD85,ADCP,16/04/1994 03:22,adp8504.021,241654,49.399,-12.835,     
CD85,ADCP,16/04/1994 03:32,adp8504.022,241656,49.398,-12.832,     
CD85,ADCP,16/04/1994 03:42,adp8504.023,241658,49.397,-12.829,     
CD85,ADCP,16/04/1994 03:52,adp8504.024,241660,49.397,-12.826,     
CD85,ADCP,16/04/1994 04:01,adp8504.025,241662,49.397,-12.823,     
CD85,ADCP,16/04/1994 04:12,adp8504.026,241384,49.398,-12.821,     
CD85,ADCP,16/04/1994 04:22,adp8504.027,241386,49.398,-12.819,     
CD85,ADCP,16/04/1994 04:32,adp8504.028,241388,49.398,-12.817,     
CD85,ADCP,16/04/1994 04:42,adp8504.029,241390,49.398,-12.815,     
CD85,ADCP,16/04/1994 04:52,adp8504.030,241392,49.399,-12.812,     
CD85,ADCP,16/04/1994 05:02,adp8504.031,241394,49.399,-12.809,     
CD85,ADCP,16/04/1994 05:12,adp8504.032,241396,49.400,-12.807,     
CD85,ADCP,16/04/1994 05:22,adp8504.033,241398,49.401,-12.804,     
CD85,ADCP,16/04/1994 05:32,adp8504.034,241400,49.403,-12.802,     
CD85,ADCP,16/04/1994 05:42,adp8504.035,241402,49.405,-12.799,     
CD85,ADCP,16/04/1994 05:52,adp8504.036,241404,49.406,-12.797,     
CD85,ADCP,16/04/1994 06:01,adp8504.037,241406,49.408,-12.794,     
CD85,ADCP,16/04/1994 06:12,adp8504.038,241408,49.410,-12.793,     
CD85,ADCP,16/04/1994 06:22,adp8504.039,241410,49.411,-12.790,     
CD85,ADCP,16/04/1994 06:32,adp8504.040,241412,49.415,-12.785,     
CD85,ADCP,16/04/1994 06:42,adp8504.041,241414,49.418,-12.781,     
CD85,ADCP,16/04/1994 06:52,adp8504.042,241416,49.419,-12.779,     
CD85,ADCP,16/04/1994 07:02,adp8504.043,241418,49.420,-12.777,     
CD85,ADCP,16/04/1994 07:12,adp8504.044,241420,49.422,-12.775,     
CD85,ADCP,16/04/1994 07:21,adp8504.045,241422,49.423,-12.775,     
CD85,ADCP,16/04/1994 07:31,adp8504.046,241424,49.424,-12.775,     
CD85,ADCP,16/04/1994 07:42,adp8504.047,241426,49.425,-12.775,     
CD85,ADCP,16/04/1994 07:52,adp8504.048,241428,49.428,-12.775,     
CD85,ADCP,16/04/1994 08:02,adp8504.049,241430,49.430,-12.775,     
CD85,ADCP,16/04/1994 08:12,adp8504.050,241432,49.431,-12.776,     
CD85,ADCP,16/04/1994 08:22,adp8504.051,241434,49.427,-12.781,     
CD85,ADCP,16/04/1994 08:32,adp8504.052,241436,49.420,-12.787,     
CD85,ADCP,16/04/1994 08:42,adp8504.053,241438,49.413,-12.793,     
CD85,ADCP,16/04/1994 08:52,adp8504.054,241440,49.406,-12.800,     
CD85,ADCP,16/04/1994 09:02,adp8504.055,241442,49.400,-12.804,     
CD85,ADCP,16/04/1994 09:12,adp8504.056,241444,49.393,-12.805,     
CD85,ADCP,16/04/1994 09:22,adp8504.057,241446,49.385,-12.804,     
CD85,ADCP,16/04/1994 09:32,adp8504.058,241448,49.378,-12.801,     
CD85,ADCP,16/04/1994 09:42,adp8504.059,241450,49.371,-12.799,     
CD85,ADCP,16/04/1994 09:52,adp8504.060,241452,49.363,-12.797,     
CD85,ADCP,16/04/1994 10:02,adp8504.061,241314,49.356,-12.797,     